When you browse on this site, cookies collect data to enhance your experience and personalize the content and advertising you see.
Visit our Privacy Policy to learn more. By continuing to use the site, you agree to this use of cookies and data.
  • In United Kingdom
  • List of Countries
  • For 7 days
  • Water Temperature
  • Satellite Maps
  • Weather Map
  • Weather Widgets
  • user-avatar
    Login

    Hourly Weather Leribe

    Today, 22 February, Friday

    Time Temperature Precipitation Wind Pressure Humidity
    00:00 +16°C° 0 mm 1 mps 632 mmHg 35%
    01:00 +16°C° 0 mm 1 mps 631 mmHg 39%
    02:00 +15°C° 0 mm 1 mps 632 mmHg 46%
    03:00 +15°C° 0 mm 1 mps 631 mmHg 50%
    04:00 +15°C° 0 mm 1 mps 631 mmHg 54%
    05:00 +14°C° 0 mm 1 mps 631 mmHg 58%
    06:00 +16°C° 0 mm 1 mps 632 mmHg 56%
    07:00 +19°C° 0 mm 2 mps 633 mmHg 54%
    08:00 +21°C° 0 mm 2 mps 633 mmHg 51%
    09:00 +24°C° 0 mm 2 mps 634 mmHg 46%
    10:00 +26°C° 0 mm 3 mps 634 mmHg 40%
    11:00 +28°C° 0 mm 4 mps 635 mmHg 35%
    12:00 +29°C° 0 mm 4 mps 634 mmHg 31%
    13:00 +30°C° 0 mm 4 mps 634 mmHg 28%
    14:00 +32°C° 0 mm 4 mps 633 mmHg 24%
    15:00 +30°C° 0 mm 4 mps 633 mmHg 26%
    16:00 +29°C° 0 mm 4 mps 632 mmHg 28%
    17:00 +28°C° 0 mm 4 mps 632 mmHg 29%
    18:00 +26°C° 0.2 mm 3 mps 631 mmHg 36%
    19:00 +24°C° 0.2 mm 2 mps 630 mmHg 43%
    20:00 +20°C° 0.2 mm 2 mps 629 mmHg 50%
    21:00 +20°C° 0 mm 2 mps 629 mmHg 50%
    22:00 +20°C° 0 mm 2 mps 629 mmHg 51%
    23:00 +20°C° 0 mm 1 mps 629 mmHg 52%

    Tomorrow, 23 February, Saturday

    Time Temperature Precipitation Wind Pressure Humidity
    00:00 +20°C° 0.2 mm 1 mps 629 mmHg 54%
    01:00 +18°C° 0.2 mm 2 mps 629 mmHg 56%
    02:00 +18°C° 0.2 mm 2 mps 628 mmHg 58%
    03:00 +18°C° 0 mm 1 mps 628 mmHg 60%
    04:00 +18°C° 0 mm 1 mps 628 mmHg 62%
    05:00 +16°C° 0 mm 1 mps 627 mmHg 64%
    06:00 +19°C° 0 mm 1 mps 628 mmHg 58%
    07:00 +21°C° 0 mm 1 mps 629 mmHg 52%
    08:00 +23°C° 0 mm 1 mps 630 mmHg 46%
    09:00 +26°C° 0 mm 2 mps 630 mmHg 36%
    10:00 +28°C° 0 mm 4 mps 630 mmHg 26%
    11:00 +30°C° 0 mm 5 mps 631 mmHg 17%
    12:00 +32°C° 0 mm 6 mps 631 mmHg 14%
    13:00 +33°C° 0 mm 7 mps 631 mmHg 12%
    14:00 +34°C° 0 mm 8 mps 630 mmHg 9%
    15:00 +34°C° 0 mm 8 mps 630 mmHg 12%
    16:00 +33°C° 0 mm 7 mps 629 mmHg 14%
    17:00 +33°C° 0 mm 7 mps 629 mmHg 17%
    18:00 +28°C° 0 mm 5 mps 628 mmHg 24%
    19:00 +25°C° 0 mm 3 mps 628 mmHg 32%
    20:00 +22°C° 0 mm 1 mps 627 mmHg 39%
    21:00 +21°C° 0 mm 1 mps 627 mmHg 41%
    22:00 +20°C° 0 mm 1 mps 628 mmHg 42%
    23:00 +19°C° 0 mm 1 mps 628 mmHg 43%

    Day after tomorrow, 24 February, Sunday

    Time Temperature Precipitation Wind Pressure Humidity
    00:00 +19°C° 0 mm 1 mps 628 mmHg 46%
    01:00 +18°C° 0 mm 1 mps 627 mmHg 49%
    02:00 +17°C° 0 mm 2 mps 627 mmHg 52%
    03:00 +16°C° 0 mm 1 mps 627 mmHg 56%
    04:00 +16°C° 0 mm 1 mps 627 mmHg 59%
    05:00 +15°C° 0 mm 1 mps 627 mmHg 63%
    06:00 +19°C° 0 mm 1 mps 628 mmHg 55%
    07:00 +21°C° 0 mm 1 mps 629 mmHg 47%
    08:00 +22°C° 0 mm 0 mps 630 mmHg 39%
    09:00 +26°C° 0 mm 1 mps 631 mmHg 33%
    10:00 +28°C° 0 mm 2 mps 631 mmHg 28%
    11:00 +31°C° 0 mm 3 mps 631 mmHg 22%
    12:00 +31°C° 0 mm 3 mps 631 mmHg 21%
    13:00 +33°C° 0 mm 4 mps 631 mmHg 19%
    14:00 +34°C° 0 mm 4 mps 631 mmHg 18%
    15:00 +33°C° 0 mm 4 mps 630 mmHg 19%
    16:00 +32°C° 0 mm 4 mps 630 mmHg 21%
    17:00 +32°C° 0 mm 4 mps 629 mmHg 22%
    18:00 +27°C° 0 mm 3 mps 629 mmHg 30%
    19:00 +24°C° 0 mm 3 mps 628 mmHg 38%
    20:00 +20°C° 0 mm 2 mps 628 mmHg 46%
    21:00 +19°C° 0 mm 2 mps 628 mmHg 50%
    22:00 +18°C° 0 mm 2 mps 628 mmHg 54%
    23:00 +18°C° 0 mm 2 mps 629 mmHg 58%

    25 February, Monday

    Time Temperature Precipitation Wind Pressure Humidity
    00:00 +17°C° 0 mm 2 mps 629 mmHg 61%
    01:00 +17°C° 0 mm 2 mps 629 mmHg 63%
    02:00 +16°C° 0 mm 2 mps 628 mmHg 66%
    03:00 +16°C° 0 mm 1 mps 628 mmHg 68%
    04:00 +15°C° 0 mm 1 mps 628 mmHg 69%
    05:00 +15°C° 0 mm 1 mps 628 mmHg 71%
    06:00 +18°C° 0 mm 1 mps 629 mmHg 63%
    07:00 +21°C° 0 mm 1 mps 630 mmHg 54%
    08:00 +21°C° 0 mm 0 mps 631 mmHg 45%
    09:00 +25°C° 0 mm 1 mps 631 mmHg 39%
    10:00 +27°C° 0 mm 2 mps 632 mmHg 34%
    11:00 +29°C° 0 mm 3 mps 632 mmHg 28%
    12:00 +29°C° 0 mm 3 mps 631 mmHg 28%
    13:00 +29°C° 0 mm 3 mps 631 mmHg 29%
    14:00 +29°C° 0 mm 3 mps 630 mmHg 29%
    15:00 +29°C° 0 mm 3 mps 630 mmHg 30%
    16:00 +29°C° 0 mm 2 mps 630 mmHg 32%
    17:00 +29°C° 0 mm 2 mps 630 mmHg 33%
    18:00 +26°C° 0.1 mm 2 mps 629 mmHg 41%
    19:00 +24°C° 0.1 mm 1 mps 628 mmHg 49%
    20:00 +21°C° 0.1 mm 1 mps 628 mmHg 57%
    21:00 +20°C° 0.3 mm 1 mps 628 mmHg 63%
    22:00 +19°C° 0.3 mm 1 mps 628 mmHg 68%
    23:00 +18°C° 0.3 mm 2 mps 628 mmHg 74%

    26 February, Tuesday

    Time Temperature Precipitation Wind Pressure Humidity
    00:00 +17°C° 0.1 mm 2 mps 628 mmHg 75%
    01:00 +17°C° 0.1 mm 2 mps 627 mmHg 77%
    02:00 +16°C° 0.1 mm 2 mps 627 mmHg 78%
    03:00 +16°C° 0.1 mm 1 mps 627 mmHg 79%
    04:00 +15°C° 0.1 mm 1 mps 627 mmHg 81%
    05:00 +15°C° 0.1 mm 1 mps 626 mmHg 82%
    06:00 +16°C° 0.1 mm 1 mps 627 mmHg 75%
    07:00 +19°C° 0.1 mm 1 mps 628 mmHg 68%
    08:00 +21°C° 0.1 mm 1 mps 629 mmHg 61%
    09:00 +23°C° 0 mm 2 mps 629 mmHg 53%
    10:00 +26°C° 0 mm 4 mps 629 mmHg 46%
    11:00 +28°C° 0 mm 5 mps 629 mmHg 39%
    12:00 +29°C° 0 mm 5 mps 629 mmHg 31%
    13:00 +30°C° 0 mm 6 mps 628 mmHg 24%
    14:00 +32°C° 0 mm 7 mps 628 mmHg 17%
    15:00 +32°C° 0 mm 7 mps 628 mmHg 16%
    16:00 +30°C° 0 mm 7 mps 627 mmHg 14%
    17:00 +31°C° 0 mm 8 mps 627 mmHg 13%
    18:00 +27°C° 0 mm 6 mps 627 mmHg 18%
    19:00 +23°C° 0 mm 4 mps 626 mmHg 23%
    20:00 +20°C° 0 mm 3 mps 626 mmHg 28%
    21:00 +18°C° 0 mm 2 mps 626 mmHg 32%
    22:00 +17°C° 0 mm 2 mps 626 mmHg 36%
    23:00 +16°C° 0 mm 1 mps 626 mmHg 39%

    27 February, Wednesday

    Time Temperature Precipitation Wind Pressure Humidity
    00:00 +16°C° 0 mm 1 mps 626 mmHg 42%
    01:00 +15°C° 0 mm 1 mps 625 mmHg 45%
    02:00 +14°C° 0 mm 1 mps 625 mmHg 49%
    03:00 +14°C° 0 mm 1 mps 625 mmHg 51%
    04:00 +13°C° 0 mm 1 mps 625 mmHg 53%
    05:00 +13°C° 0 mm 1 mps 625 mmHg 55%
    06:00 +15°C° 0 mm 1 mps 627 mmHg 46%
    07:00 +19°C° 0 mm 1 mps 628 mmHg 37%
    08:00 +22°C° 0 mm 1 mps 630 mmHg 29%
    09:00 +24°C° 0 mm 1 mps 630 mmHg 25%
    10:00 +25°C° 0 mm 2 mps 630 mmHg 21%
    11:00 +27°C° 0 mm 3 mps 631 mmHg 17%
    12:00 +28°C° 0 mm 3 mps 631 mmHg 16%
    13:00 +29°C° 0 mm 4 mps 631 mmHg 15%
    14:00 +29°C° 0 mm 5 mps 631 mmHg 14%
    15:00 +29°C° 0 mm 5 mps 630 mmHg 14%
    16:00 +29°C° 0 mm 5 mps 630 mmHg 14%
    17:00 +28°C° 0 mm 5 mps 630 mmHg 13%
    18:00 +25°C° 0 mm 4 mps 630 mmHg 18%
    19:00 +20°C° 0 mm 2 mps 629 mmHg 22%
    20:00 +16°C° 0 mm 1 mps 629 mmHg 27%
    21:00 +15°C° 0 mm 1 mps 629 mmHg 29%
    22:00 +15°C° 0 mm 1 mps 629 mmHg 32%
    23:00 +14°C° 0 mm 1 mps 629 mmHg 34%
    Show more